| time (UTC) | temp F | wind direction | speed MPH | gust MPH | rain 1hr in | rain 24hr in | rain mn in | humidity % | barometer mb |
| 20260831151555 | 73 | 76 | 0.0 | 2.0 | 0.00 | 0.00 | 0.00 | 47 | 1009.3 |
| 20260831150050 | 70 | 76 | 1.0 | 5.0 | 0.00 | 0.00 | 0.00 | 51 | 1009.6 |
| 20260831144547 | 69 | 15 | 2.0 | 5.0 | 0.00 | 0.00 | 0.00 | 52 | 1009.6 |
| 20260831143050 | 66 | 5 | 3.0 | 6.0 | 0.00 | 0.00 | 0.00 | 56 | 1009.3 |
| 20260831141545 | 65 | 40 | 4.0 | 6.0 | 0.00 | 0.00 | 0.00 | 58 | 1009.2 |
| 20260831140042 | 64 | 51 | 4.0 | 6.0 | 0.00 | 0.00 | 0.00 | 62 | 1009.0 |
| 20260831134539 | 63 | 202 | 0.0 | 3.0 | 0.00 | 0.00 | 0.00 | 57 | 1008.7 |
| 20260831133037 | 62 | 202 | 1.0 | 3.0 | 0.00 | 0.00 | 0.00 | 57 | 1008.7 |
| 20260831131538 | 62 | 202 | 1.0 | 3.0 | 0.00 | 0.00 | 0.00 | 60 | 1008.4 |
| 20260831130144 | 61 | 250 | 2.0 | 3.0 | 0.00 | 0.00 | 0.00 | 58 | 1008.3 |
| 20260831124553 | 61 | 178 | 1.0 | 3.0 | 0.00 | 0.00 | 0.00 | 58 | 1008.1 |
| 20260831123049 | 61 | 179 | 0.0 | 2.0 | 0.00 | 0.00 | 0.00 | 58 | 1007.8 |
| 20260831121527 | 61 | 179 | 1.0 | 4.0 | 0.00 | 0.00 | 0.00 | 60 | 1007.7 |
| 20260831120032 | 61 | 292 | 2.0 | 4.0 | 0.00 | 0.00 | 0.00 | 60 | 1007.5 |
| 20260831114520 | 61 | 292 | 1.0 | 2.0 | 0.00 | 0.00 | 0.00 | 58 | 1007.5 |
| 20260831113022 | 62 | 292 | 0.0 | 2.0 | 0.00 | 0.00 | 0.00 | 56 | 1007.5 |
| 20260831111513 | 63 | 292 | 3.0 | 6.0 | 0.00 | 0.00 | 0.00 | 56 | 1007.1 |
| 20260831110011 | 62 | 300 | 5.0 | 7.0 | 0.00 | 0.00 | 0.00 | 58 | 1007.0 |
| 20260831104521 | 61 | 277 | 4.0 | 6.0 | 0.00 | 0.00 | 0.00 | 60 | 1006.7 |
| 20260831103009 | 62 | 219 | 2.0 | 4.0 | 0.00 | 0.00 | 0.00 | 61 | 1006.8 |
| 20260831101510 | 62 | 89 | 1.0 | 6.0 | 0.00 | 0.00 | 0.00 | 61 | 1006.5 |
| 20260831100012 | 62 | 304 | 2.0 | 6.0 | 0.00 | 0.00 | 0.00 | 61 | 1006.3 |
| 20260831094503 | 61 | 277 | 4.0 | 9.0 | 0.00 | 0.00 | 0.00 | 63 | 1006.0 |
| 20260831093001 | 61 | 5 | 3.0 | 8.0 | 0.00 | 0.00 | 0.00 | 64 | 1005.9 |
| 20260831091603 | 61 | 21 | 1.0 | 5.0 | 0.00 | 0.00 | 0.00 | 62 | 1005.9 |
| 20260831090059 | 62 | 28 | 5.0 | 8.0 | 0.00 | 0.00 | 0.00 | 61 | 1005.9 |
| 20260831084558 | 62 | 336 | 5.0 | 7.0 | 0.00 | 0.00 | 0.00 | 59 | 1005.8 |
| 20260831083055 | 63 | 122 | 0.0 | 2.0 | 0.00 | 0.00 | 0.00 | 56 | 1005.6 |
| 20260831081557 | 64 | 111 | 1.0 | 5.0 | 0.00 | 0.00 | 0.00 | 56 | 1005.6 |
| 20260831080048 | 64 | 315 | 0.0 | 4.0 | 0.00 | 0.00 | 0.00 | 56 | 1005.7 |
| 20260831074544 | 64 | 15 | 3.0 | 5.0 | 0.00 | 0.00 | 0.00 | 56 | 1005.9 |
| 20260831073042 | 65 | 355 | 1.0 | 5.0 | 0.00 | 0.00 | 0.00 | 55 | 1005.8 |
| 20260831071541 | 66 | 25 | 9.0 | 12.0 | 0.00 | 0.00 | 0.00 | 54 | 1005.9 |
| 20260831070106 | 66 | 201 | 4.0 | 8.0 | 0.00 | 0.00 | 0.00 | 52 | 1005.8 |
| 20260831064535 | 65 | 211 | 5.0 | 8.0 | 0.00 | 0.00 | 0.00 | 61 | 1005.8 |
| 20260831063033 | 65 | 207 | 3.0 | 4.0 | 0.00 | 0.00 | 0.00 | 63 | 1006.1 |
| 20260831061530 | 65 | 284 | 0.0 | 4.0 | 0.00 | 0.00 | 0.00 | 62 | 1006.0 |
| 20260831060028 | 65 | 284 | 2.0 | 6.0 | 0.00 | 0.00 | 0.00 | 61 | 1006.2 |
| 20260831054526 | 66 | 360 | 5.0 | 7.0 | 0.00 | 0.00 | 0.00 | 61 | 1006.5 |
| 20260831053023 | 68 | 157 | 6.0 | 10.0 | 0.00 | 0.00 | 0.00 | 55 | 1006.3 |
| 20260831051533 | 70 | 130 | 0.0 | 4.0 | 0.00 | 0.00 | 0.00 | 49 | 1006.4 |
| 20260831050021 | 70 | 254 | 4.0 | 10.0 | 0.00 | 0.00 | 0.00 | 46 | 1006.5 |
| 20260831044521 | 68 | 261 | 2.0 | 5.0 | 0.00 | 0.00 | 0.00 | 48 | 1006.6 |
| 20260831043021 | 68 | 294 | 5.0 | 8.0 | 0.00 | 0.00 | 0.00 | 49 | 1006.6 |
| 20260831041528 | 67 | 255 | 0.0 | 2.0 | 0.00 | 0.00 | 0.00 | 51 | 1006.8 |
| 20260831040036 | 68 | 255 | 2.0 | 4.0 | 0.00 | 0.00 | 0.00 | 49 | 1006.4 |
| 20260831034518 | 69 | 255 | 3.0 | 5.0 | 0.00 | 0.00 | 0.00 | 48 | 1006.5 |
| 20260831033016 | 68 | 252 | 3.0 | 4.0 | 0.00 | 0.00 | 0.00 | 49 | 1006.6 |
| 20260831031513 | 67 | 252 | 2.0 | 4.0 | 0.00 | 0.00 | 0.00 | 50 | 1006.2 |
| 20260831030012 | 66 | 252 | 1.0 | 3.0 | 0.00 | 0.00 | 0.00 | 51 | 1006.1 |
| 20260831024511 | 66 | 252 | 2.0 | 4.0 | 0.00 | 0.00 | 0.00 | 51 | 1006.1 |
| 20260831023017 | 67 | 252 | 0.0 | 1.0 | 0.00 | 0.00 | 0.00 | 49 | 1005.7 |
| 20260831021527 | 68 | 252 | 2.0 | 4.0 | 0.00 | 0.00 | 0.00 | 46 | 1005.4 |
| 20260831020007 | 69 | 252 | 1.0 | 4.0 | 0.00 | 0.00 | 0.00 | 48 | 1005.1 |
| 20260831014507 | 70 | 271 | 1.0 | 4.0 | 0.00 | 0.00 | 0.00 | 46 | 1004.9 |
| 20260831013007 | 71 | 271 | 2.0 | 4.0 | 0.00 | 0.00 | 0.00 | 46 | 1004.8 |
| 20260831011506 | 72 | 271 | 2.0 | 5.0 | 0.00 | 0.00 | 0.00 | 44 | 1004.6 |
| 20260831010013 | 73 | 196 | 2.0 | 3.0 | 0.00 | 0.00 | 0.00 | 42 | 1004.7 |
| 20260831004505 | 74 | 157 | 0.0 | 0.0 | 0.00 | 0.00 | 0.00 | 43 | 1004.8 |
| 20260831003004 | 74 | 157 | 0.0 | 0.0 | 0.00 | 0.00 | 0.00 | 44 | 1004.9 |
| 20260831001503 | 74 | 157 | 0.0 | 0.0 | 0.00 | 0.00 | 0.00 | 44 | 1005.0 |
| 20260831000005 | 74 | 157 | 0.0 | 4.0 | 0.00 | 0.00 | 0.00 | 43 | 1005.0 |
| 20260830234503 | 74 | 102 | 0.0 | 5.0 | 0.00 | 0.00 | 0.00 | 41 | 1005.0 |
| 20260830233002 | 74 | 58 | 3.0 | 7.0 | 0.00 | 0.00 | 0.00 | 41 | 1005.0 |
| 20260830231502 | 74 | 77 | 1.0 | 5.0 | 0.00 | 0.00 | 0.00 | 44 | 1004.8 |
| 20260830230001 | 75 | 63 | 5.0 | 11.0 | 0.00 | 0.00 | 0.00 | 41 | 1004.8 |
| 20260830224503 | 75 | 14 | 6.0 | 10.0 | 0.00 | 0.00 | 0.00 | 38 | 1004.7 |
| 20260830223003 | 74 | 306 | 4.0 | 7.0 | 0.00 | 0.00 | 0.00 | 39 | 1004.4 |
| 20260830221600 | 74 | 257 | 2.0 | 8.0 | 0.00 | 0.00 | 0.00 | 40 | 1004.4 |
| 20260830220121 | 74 | 238 | 3.0 | 10.0 | 0.00 | 0.00 | 0.00 | 39 | 1004.5 |
| 20260830214604 | 75 | 249 | 7.0 | 15.0 | 0.00 | 0.00 | 0.00 | 38 | 1005.0 |
| 20260830213058 | 75 | 192 | 3.0 | 10.0 | 0.00 | 0.00 | 0.00 | 41 | 1005.0 |
| 20260830211602 | 74 | 267 | 8.0 | 14.0 | 0.00 | 0.00 | 0.00 | 41 | 1005.4 |
| 20260830210058 | 74 | 312 | 5.0 | 22.0 | 0.00 | 0.00 | 0.00 | 40 | 1005.5 |
| 20260830204555 | 76 | 228 | 6.0 | 19.0 | 0.00 | 0.00 | 0.00 | 38 | 1005.2 |
| 20260830203110 | 77 | 271 | 12.0 | 22.0 | 0.00 | 0.00 | 0.00 | 36 | 1005.4 |
| 20260830201553 | 77 | 202 | 4.0 | 8.0 | 0.00 | 0.00 | 0.00 | 46 | 1005.2 |
| 20260830200053 | 77 | 155 | 6.0 | 13.0 | 0.00 | 0.00 | 0.00 | 44 | 1004.6 |
| 20260830194549 | 77 | 109 | 4.0 | 9.0 | 0.00 | 0.00 | 0.00 | 44 | 1004.1 |
| 20260830193048 | 76 | 150 | 4.0 | 12.0 | 0.00 | 0.00 | 0.00 | 44 | 1003.3 |
| 20260830191547 | 76 | 172 | 2.0 | 6.0 | 0.00 | 0.00 | 0.00 | 43 | 1003.6 |
| 20260830190047 | 75 | 268 | 11.0 | 25.0 | 0.00 | 0.00 | 0.00 | 41 | 1004.0 |
| 20260830184546 | 80 | 5 | 17.0 | 24.0 | 0.00 | 0.00 | 0.00 | 34 | 1003.7 |
| 20260830183047 | 81 | 67 | 2.0 | 10.0 | 0.00 | 0.00 | 0.00 | 36 | 1003.0 |
| 20260830181549 | 81 | 63 | 2.0 | 9.0 | 0.00 | 0.00 | 0.00 | 38 | 1002.8 |
| 20260830180059 | 80 | 105 | 5.0 | 11.0 | 0.00 | 0.00 | 0.00 | 38 | 1002.9 |
| 20260830174551 | 81 | 128 | 4.0 | 7.0 | 0.00 | 0.00 | 0.00 | 36 | 1003.3 |
| 20260830173108 | 81 | 97 | 6.0 | 9.0 | 0.00 | 0.00 | 0.00 | 36 | 1003.5 |
| 20260830171554 | 80 | 134 | 1.0 | 5.0 | 0.00 | 0.00 | 0.00 | 38 | 1003.7 |
| 20260830170042 | 79 | 77 | 4.0 | 12.0 | 0.00 | 0.00 | 0.00 | 38 | 1003.8 |
| 20260830164540 | 81 | 267 | 0.0 | 5.0 | 0.00 | 0.00 | 0.00 | 35 | 1003.7 |
| 20260830163036 | 79 | 355 | 1.0 | 7.0 | 0.00 | 0.00 | 0.00 | 37 | 1003.9 |
| 20260830161540 | 77 | 329 | 8.0 | 13.0 | 0.00 | 0.00 | 0.00 | 38 | 1003.9 |
| 20260830160034 | 78 | 325 | 11.0 | 16.0 | 0.00 | 0.00 | 0.00 | 37 | 1004.2 |
| 20260830154532 | 76 | 334 | 13.0 | 17.0 | 0.00 | 0.00 | 0.00 | 39 | 1004.3 |
| 20260830153026 | 75 | 345 | 13.0 | 24.0 | 0.00 | 0.00 | 0.00 | 42 | 1004.4 |